[[{"header":{"parameterUnit":"m.s-1","parameterCategory":1,"la1":30.2991,"la2":30.254,"lo1":-89.0895,"lo2":-89.0444,"dy":0.0017,"dx":0.0017,"nx":28,"ny":28,"refTime":"2025-08-10T03:00:00:Z","depth":0,"parameterNumber":2,"parameterNumberName":"U-component_of_WINDS"},"data":[0,0,0,0,0,0,0,0,0,0,0,0,0,0,0,0,0,0,0,0,0,0,0,0,0,0,0,0,0,0,0,0,0,0,0,0,0,0,0,0,0,0,0,0,0,0,0,0,0,0,0,0,0,0,0,0,0,0,-1.2196,-1.2196,0,-1.2246,-1.2247,-1.2248,-1.2238,-1.2238,-1.2237,-1.2236,-1.2287,-1.229,-1.2292,0,0,0,0,0,0,0,0,0,0,0,0,0,-1.209,-1.2092,-1.2195,-1.2196,-1.2197,-1.2246,-1.2247,-1.2248,-1.2239,-1.2237,-1.2236,-1.2235,-1.2287,-1.2289,-1.2292,0,0,0,0,0,0,0,0,0,0,0,0,0,-1.2138,-1.2093,-1.2195,-1.2198,-1.2199,-1.2246,-1.2247,-1.2248,-1.2239,-1.2237,-1.2236,-1.2235,-1.2286,-1.2289,-1.2292,-1.234,0,0,-1.2302,-1.2304,0,0,0,0,0,0,0,0,-1.2135,-1.2142,-1.2197,-1.2198,-1.2199,-1.2235,-1.2229,-1.2279,-1.2239,-1.2224,-1.2236,-1.2234,-1.2271,-1.2275,-1.2288,-1.2342,-1.2344,-1.2303,-1.2305,-1.2306,-1.2307,0,0,0,0,0,0,0,-1.2132,-1.2139,-1.2216,-1.2198,-1.2199,-1.2197,-1.2202,-1.2238,-1.2254,-1.2225,-1.2224,-1.2231,-1.2271,-1.2285,-1.2289,-1.2345,-1.2303,-1.2306,-1.2308,-1.2309,-1.2441,-1.2442,0,0,0,0,0,0,-1.2128,-1.2137,-1.2214,-1.2217,-1.2163,-1.22,-1.2206,-1.2225,-1.2254,-1.2257,-1.2232,-1.223,-1.228,-1.2285,-1.2291,-1.2349,-1.2306,-1.2309,-1.2311,-1.2439,-1.2441,-1.2443,0,0,0,0,0,0,-1.2125,-1.2135,-1.2212,-1.2177,-1.2186,-1.2203,-1.2224,-1.2226,-1.224,-1.2259,-1.2262,-1.2243,-1.2279,-1.2286,-1.2328,-1.235,-1.2311,-1.2314,-1.2438,-1.244,-1.2442,-1.2465,0,0,0,0,0,0,-1.2122,-1.2134,-1.2152,-1.2177,-1.2188,-1.2248,-1.2226,-1.2228,-1.2246,-1.2244,-1.227,-1.2273,-1.2278,-1.2323,-1.2331,-1.2354,-1.2316,-1.2436,-1.2439,-1.2441,-1.2462,-1.2468,-1.2472,0,0,0,0,0,-1.2119,-1.2157,-1.2153,-1.2163,-1.2212,-1.225,-1.2256,-1.2262,-1.2247,-1.2266,-1.2278,-1.2272,-1.2346,-1.2327,-1.2336,-1.2361,-1.2434,-1.2438,-1.2441,-1.246,-1.2467,-1.2472,0,0,0,0,0,0,-1.2134,-1.216,-1.2157,-1.2204,-1.2225,-1.2248,-1.2272,-1.2268,-1.2294,-1.2291,-1.2297,-1.2303,-1.2345,-1.2357,-1.2335,-1.2408,-1.2388,-1.2394,-1.2399,-1.2406,-1.2411,-1.2408,-1.2319,0,0,0,0,0,-1.2143,-1.2171,-1.2192,-1.2232,-1.2243,-1.2255,-1.2272,-1.2275,-1.2296,-1.2305,-1.232,-1.2342,-1.237,-1.2388,-1.2415,-1.2463,-1.2469,-1.2485,-1.249,-1.2494,-1.2499,-1.2526,-1.2533,-1.2454,-1.2454,-1.2454,0,0,-1.2161,-1.2179,-1.2197,-1.2235,-1.2252,-1.2282,-1.2263,-1.2295,-1.2317,-1.231,-1.2351,-1.2362,-1.2386,-1.2432,-1.2452,-1.2443,-1.2522,-1.2498,-1.2501,-1.2504,-1.253,-1.2537,-1.2544,-1.2456,-1.2456,-1.2456,0,0,-1.221,-1.2226,-1.2261,-1.2278,-1.2303,-1.2312,-1.232,-1.2344,-1.2352,-1.2392,-1.2388,-1.2413,-1.2462,-1.2479,-1.2494,-1.255,-1.2545,-1.2558,-1.2585,-1.2611,-1.2617,-1.2623,-1.2643,-1.265,-1.2563,-1.2563,-1.2563,0,-1.2231,-1.2275,-1.228,-1.2313,-1.233,-1.2324,-1.236,-1.2376,-1.2408,-1.242,-1.2409,-1.247,-1.2485,-1.2535,-1.2548,-1.256,-1.257,-1.2556,-1.2616,-1.2622,-1.2627,-1.2646,-1.2654,-1.2564,-1.2564,-1.2564,-1.2564,0,-1.2299,-1.233,-1.2355,-1.2387,-1.2407,-1.2441,-1.245,-1.247,-1.247,-1.2479,-1.2521,-1.2539,-1.257,-1.2582,-1.2582,-1.2631,-1.2625,-1.2615,-1.2595,-1.2636,-1.2654,-1.2662,-1.2566,-1.2566,-1.2565,-1.2565,0,0,-1.236,-1.2394,-1.2403,-1.2418,-1.2445,-1.2469,-1.2502,-1.2532,-1.2549,-1.2571,-1.26,-1.264,-1.2631,-1.2648,-1.2651,-1.2673,-1.2717,-1.2661,-1.2661,-1.2671,-1.2773,-1.2781,-1.279,-1.2713,-1.2715,-1.2716,-1.2771,0,-1.2413,-1.2473,-1.2477,-1.2531,-1.256,-1.2555,-1.2584,-1.2603,-1.2613,-1.2638,-1.2648,-1.2677,-1.2663,-1.2673,-1.2695,-1.2707,-1.2738,-1.2703,-1.274,-1.2742,-1.2736,-1.28,-1.2809,-1.286,-1.2778,-1.278,-1.278,0,-1.2483,-1.2508,-1.2564,-1.2587,-1.2599,-1.2626,-1.2654,-1.2678,-1.27,-1.2705,-1.2724,-1.2723,-1.2757,-1.2735,-1.2783,-1.2759,-1.2774,-1.2782,-1.2784,-1.2789,-1.2765,-1.2807,-1.2876,-1.2885,-1.2792,-1.2791,-1.279,0,-1.2524,-1.2571,-1.2611,-1.2623,-1.2651,-1.2669,-1.2681,-1.2702,-1.272,-1.2744,-1.2756,-1.2783,-1.2799,-1.282,-1.2827,-1.281,-1.2874,-1.2852,-1.288,-1.288,-1.2895,-1.2894,-1.2969,-1.2902,-1.2902,-1.2902,-1.2902,0,-1.2583,-1.2618,-1.2629,-1.2654,-1.2693,-1.2698,-1.2736,-1.2747,-1.2766,-1.2793,-1.2789,-1.2814,-1.2821,-1.2847,-1.2852,-1.2891,-1.2897,-1.2903,-1.2904,-1.2904,-1.2904,-1.2915,-1.2913,-1.2904,-1.2904,-1.2903,-1.2903,0,-1.2635,-1.2644,-1.2688,-1.271,-1.2717,-1.2745,-1.2764,-1.2787,-1.2796,-1.283,-1.2838,-1.2851,-1.2882,-1.289,-1.2926,-1.293,-1.2976,-1.2973,-1.2969,-1.2969,-1.2997,-1.2995,-1.3083,-1.3095,-1.3019,-1.302,-1.3021,0,-1.2673,-1.27,-1.2725,-1.2743,-1.2756,-1.2785,-1.2803,-1.2808,-1.2827,-1.2854,-1.2875,-1.2905,-1.293,-1.2979,-1.2992,-1.302,-1.3018,-1.3047,-1.3023,-1.3022,-1.302,-1.3019,-1.3022,-1.3052,-1.3053,-1.3054,-1.3054,0,-1.274,-1.2743,-1.277,-1.2798,-1.282,-1.2842,-1.2863,-1.2878,-1.2886,-1.2907,-1.2939,-1.2958,-1.2995,-1.3026,-1.3054,-1.3066,-1.3062,-1.3062,-1.307,-1.3071,-1.3068,-1.3071,-1.2983,-1.306,-1.306,-1.3059,-1.3059,-1.3059,-1.2788,-1.2812,-1.2833,-1.2863,-1.2879,-1.2899,-1.2923,-1.2934,-1.296,-1.2992,-1.2992,-1.3027,-1.3048,-1.3085,-1.3099,-1.3126,-1.3117,-1.3129,-1.3132,-1.3135,-1.3138,-1.3062,-1.3131,-1.313,-1.313,-1.313,-1.313,0,-1.2856,-1.2869,-1.2896,-1.2926,-1.2949,-1.2942,-1.2966,-1.2986,-1.3016,-1.3036,-1.306,-1.3096,-1.3125,-1.314,-1.3169,-1.3188,-1.3187,-1.3195,-1.3195,-1.3198,-1.3143,-1.3134,-1.3196,-1.3196,-1.3196,-1.3196,-1.3196,-1.3196,-1.2894,-1.2934,-1.2939,-1.2988,-1.3001,-1.3035,-1.3049,-1.3067,-1.3083,-1.3124,-1.3148,-1.3157,-1.3175,-1.3205,-1.3232,-1.3235,-1.3246,-1.3257,-1.3259,-1.3208,-1.3202,-1.3195,-1.3187,-1.3259,-1.3259,-1.3312,-1.3312,-1.3313]},{"header":{"parameterUnit":"m.s-1","parameterCategory":1,"la1":30.2991,"la2":30.254,"lo1":-89.0895,"lo2":-89.0444,"dy":0.0017,"dx":0.0017,"nx":28,"ny":28,"refTime":"2025-08-10T03:00:00:Z","depth":0,"parameterNumber":3,"parameterNumberName":"V-component_of_WINDS"},"data":[0,0,0,0,0,0,0,0,0,0,0,0,0,0,0,0,0,0,0,0,0,0,0,0,0,0,0,0,0,0,0,0,0,0,0,0,0,0,0,0,0,0,0,0,0,0,0,0,0,0,0,0,0,0,0,0,0,0,1.8537,1.8536,0,1.8486,1.8486,1.8485,1.8443,1.8442,1.8442,1.8441,1.8387,1.8386,1.8385,0,0,0,0,0,0,0,0,0,0,0,0,0,1.8593,1.8592,1.8537,1.8536,1.8536,1.8487,1.8486,1.8485,1.8443,1.8442,1.8441,1.8441,1.8387,1.8386,1.8384,0,0,0,0,0,0,0,0,0,0,0,0,0,1.8558,1.8592,1.8537,1.8509,1.8505,1.8487,1.8486,1.8485,1.8443,1.8442,1.8441,1.8441,1.8387,1.8386,1.8384,1.8389,0,0,1.838,1.8379,0,0,0,0,0,0,0,0,1.856,1.8556,1.8513,1.851,1.8507,1.847,1.8486,1.8453,1.8443,1.8466,1.8441,1.844,1.8415,1.8411,1.8403,1.8386,1.8384,1.8379,1.8378,1.8378,1.8377,0,0,0,0,0,0,0,1.8563,1.8558,1.8517,1.8513,1.8509,1.8497,1.8492,1.8479,1.8445,1.8464,1.8461,1.8456,1.8413,1.8404,1.8401,1.8383,1.8379,1.8378,1.8377,1.8377,1.8367,1.8367,0,0,0,0,0,0,1.857,1.8561,1.8518,1.8515,1.8533,1.8497,1.849,1.8483,1.8445,1.8439,1.8457,1.8454,1.8407,1.8403,1.8399,1.8402,1.8378,1.8376,1.8376,1.8366,1.8367,1.8368,0,0,0,0,0,0,1.8571,1.8567,1.852,1.8537,1.853,1.8497,1.8488,1.8482,1.8474,1.8439,1.8433,1.8455,1.8407,1.8401,1.8392,1.8399,1.8376,1.8374,1.8365,1.8366,1.8367,1.8407,0,0,0,0,0,0,1.8573,1.8567,1.857,1.8537,1.853,1.8515,1.8489,1.8481,1.8471,1.8468,1.8435,1.8429,1.8406,1.8394,1.839,1.8397,1.8373,1.8364,1.8366,1.8367,1.8405,1.8409,1.8413,0,0,0,0,0,1.8575,1.8582,1.857,1.8565,1.8532,1.8515,1.8511,1.8484,1.8472,1.8474,1.8451,1.843,1.8399,1.8394,1.8389,1.8395,1.8364,1.8365,1.8367,1.8403,1.8409,1.8413,0,0,0,0,0,0,1.8615,1.8577,1.8563,1.856,1.8541,1.8508,1.8509,1.8491,1.8474,1.8471,1.8438,1.8431,1.8425,1.8409,1.8403,1.8397,1.8379,1.8379,1.8408,1.8413,1.8417,1.8421,1.8372,0,0,0,0,0,1.8624,1.8615,1.8582,1.8582,1.8573,1.8543,1.8535,1.8516,1.8495,1.8487,1.8464,1.8443,1.8429,1.842,1.8404,1.8402,1.8394,1.8404,1.8408,1.8412,1.8412,1.841,1.8414,1.8372,1.8372,1.8372,0,0,1.8641,1.8619,1.8615,1.8589,1.8573,1.8563,1.8537,1.8528,1.852,1.8485,1.8475,1.8457,1.8432,1.8426,1.8423,1.8413,1.8422,1.8414,1.8417,1.8415,1.8412,1.8416,1.8419,1.8374,1.8373,1.8373,0,0,1.8667,1.865,1.8649,1.8633,1.8608,1.8588,1.8587,1.8557,1.8544,1.8534,1.8507,1.8497,1.8473,1.8456,1.8444,1.8465,1.8445,1.846,1.8482,1.848,1.8483,1.8485,1.8493,1.8496,1.8461,1.8461,1.8461,0,1.8692,1.8677,1.865,1.8643,1.8632,1.8601,1.8598,1.8584,1.8555,1.8548,1.8537,1.8506,1.8487,1.8477,1.8482,1.8473,1.8471,1.8464,1.8485,1.8487,1.8489,1.8496,1.8498,1.8464,1.8463,1.8463,1.8463,0,1.8708,1.8699,1.87,1.8674,1.8663,1.8659,1.863,1.8622,1.8604,1.8585,1.8574,1.855,1.8529,1.8525,1.8507,1.8513,1.8507,1.8491,1.8472,1.8496,1.8501,1.8503,1.8467,1.8466,1.8465,1.8465,0,0,1.8758,1.8718,1.8719,1.8707,1.8677,1.8669,1.8662,1.8643,1.8637,1.8618,1.8611,1.8592,1.8577,1.8563,1.8543,1.8541,1.8559,1.8525,1.8524,1.8532,1.8563,1.8575,1.8579,1.8545,1.8546,1.8546,1.8565,0,1.878,1.8768,1.8743,1.8738,1.8729,1.8699,1.8693,1.8674,1.8655,1.8644,1.8623,1.861,1.8591,1.8583,1.858,1.8557,1.8564,1.8556,1.8538,1.8538,1.8546,1.8581,1.8594,1.8613,1.8567,1.8567,1.8567,0,1.8804,1.8788,1.8783,1.8754,1.8749,1.8745,1.8725,1.8714,1.8692,1.8678,1.8664,1.8642,1.8632,1.8615,1.8602,1.8596,1.8587,1.8575,1.8575,1.8573,1.8554,1.858,1.8619,1.8622,1.857,1.857,1.857,0,1.8841,1.8818,1.8812,1.8803,1.8769,1.8766,1.8752,1.8729,1.8719,1.8701,1.8694,1.8675,1.8665,1.865,1.8624,1.8614,1.8613,1.8593,1.8601,1.8602,1.8602,1.8602,1.8641,1.8597,1.8597,1.8596,1.8596,0,1.8868,1.8866,1.8829,1.8825,1.8821,1.8792,1.8789,1.8772,1.8751,1.8743,1.8715,1.8708,1.8673,1.8661,1.864,1.8632,1.8627,1.8616,1.861,1.8618,1.862,1.8612,1.861,1.8597,1.8597,1.8597,1.8597,0,1.891,1.8884,1.8875,1.8844,1.8836,1.8835,1.8808,1.8803,1.8783,1.8773,1.8769,1.8737,1.8722,1.8694,1.867,1.8656,1.8652,1.8642,1.866,1.8657,1.8666,1.8666,1.8701,1.8704,1.8658,1.8658,1.8659,0,1.8929,1.8926,1.8895,1.8888,1.8875,1.8864,1.8854,1.8825,1.8815,1.8789,1.8787,1.877,1.8755,1.8731,1.8706,1.8687,1.8677,1.8691,1.8674,1.8682,1.8677,1.8678,1.8677,1.8694,1.8695,1.8696,1.8696,0,1.8965,1.8953,1.894,1.8922,1.8911,1.8896,1.8879,1.8875,1.8841,1.8832,1.8817,1.8805,1.8781,1.8764,1.8742,1.8726,1.8706,1.8701,1.8702,1.8711,1.8721,1.8716,1.867,1.8701,1.87,1.87,1.87,1.8699,1.8995,1.8992,1.897,1.8956,1.8941,1.8926,1.8919,1.8899,1.8886,1.8865,1.8848,1.8834,1.8811,1.878,1.8765,1.8753,1.8743,1.8744,1.8745,1.8745,1.8749,1.8723,1.8749,1.8749,1.8748,1.8748,1.8748,0,1.9031,1.9015,1.9003,1.898,1.897,1.8952,1.8932,1.8924,1.8912,1.8893,1.8879,1.8861,1.8844,1.8818,1.8799,1.8794,1.8784,1.879,1.879,1.8787,1.8759,1.876,1.8799,1.8799,1.8799,1.8799,1.8799,1.8799,1.9048,1.9041,1.9026,1.9011,1.8995,1.8982,1.8972,1.8958,1.8942,1.8924,1.8911,1.8894,1.8871,1.885,1.8834,1.8827,1.8821,1.883,1.8819,1.8794,1.8789,1.8784,1.8785,1.8829,1.8829,1.8849,1.8849,1.8849]}]]